Theta_e
328 328 331 334 339 337 336 335 334 336 337 335 333 335 335 332 333 336 333 332 334 334 339 338 336 337 334 332 330 329 330 330 331 331 329 330 329 329 329 329 329 329 330 329 329 328 328 326 326
328 327 330 335 337 339 335 333 335 333 333 336 331 332 332 335 334 335 334 332 334 335 338 336 333 337 334 331 329 329 330 330 330 330 329 329 329 328 328 329 329 330 329 328 328 328 327 326 325
327 326 330 334 334 337 335 332 331 331 332 335 336 333 334 335 334 335 334 332 335 337 337 336 333 337 335 331 329 329 329 329 329 330 329 329 328 329 329 329 329 330 329 328 328 328 322 324 326
327 328 330 335 334 333 333 331 331 334 337 337 338 337 334 333 334 334 334 334 336 336 337 334 335 336 335 332 329 330 330 329 329 329 329 328 328 329 329 330 330 328 328 328 326 323 324 326 327
327 329 334 336 334 331 332 331 331 334 335 338 338 339 337 333 333 335 332 334 336 336 336 334 336 335 335 333 330 330 330 330 330 329 329 329 329 329 329 328 324 322 323 324 323 324 327 328 328
331 329 334 335 334 331 330 331 332 332 333 336 338 339 337 332 334 333 333 334 335 336 335 334 333 335 335 334 332 329 329 328 328 329 329 329 329 329 325 321 321 321 322 324 326 328 329 329 329
330 333 333 332 331 332 330 329 330 331 333 335 336 340 336 333 333 332 333 333 335 335 334 333 335 335 334 334 332 330 328 326 328 328 328 328 328 327 321 321 321 322 325 328 329 329 329 328 328
327 331 331 330 330 331 329 328 328 329 330 333 335 339 339 333 332 332 333 333 335 334 332 331 332 335 335 335 332 333 330 321 324 327 327 324 324 321 321 322 322 325 328 329 329 327 326 327 325
324 330 331 329 329 329 327 329 329 331 332 335 335 334 332 332 331 332 333 333 334 333 331 330 331 334 335 335 334 334 331 319 320 321 321 320 325 324 322 324 325 328 329 328 328 328 326 326 325
322 327 326 324 325 327 326 328 328 330 334 337 338 332 332 330 331 331 331 333 333 332 332 334 332 331 334 335 335 333 326 323 322 324 323 324 325 325 326 327 328 329 327 327 328 327 326 324 323
316 324 322 322 323 325 327 326 327 330 331 332 337 336 332 330 330 331 331 332 332 331 332 333 335 333 334 333 333 331 325 323 322 324 324 325 326 326 328 329 329 329 328 331 328 325 322 321 320
309 312 319 320 322 324 328 327 328 328 330 330 333 334 333 332 331 331 332 330 330 330 332 333 335 334 333 332 331 328 323 322 322 323 325 327 327 329 329 331 331 330 331 329 324 321 319 317 318
307 307 308 313 315 318 321 327 329 328 327 327 330 332 334 333 332 331 330 330 330 329 331 331 332 332 332 330 328 324 320 320 321 324 327 328 328 329 331 331 329 327 326 324 321 317 315 314 317
308 309 308 308 310 314 317 323 325 327 327 326 329 332 333 333 333 332 331 330 329 329 331 330 331 331 329 328 324 321 320 321 323 327 328 328 328 330 331 327 327 326 323 320 316 312 311 314 316
308 310 309 309 307 309 314 320 325 324 326 328 328 329 332 333 332 331 331 329 328 329 330 329 331 332 326 326 323 321 321 322 325 328 329 328 330 329 327 327 325 324 321 320 315 308 310 311 310
306 306 308 307 308 306 314 322 322 322 324 327 328 328 331 333 333 331 331 330 329 328 329 329 330 328 326 324 323 322 322 324 326 329 330 329 330 327 326 326 324 323 318 312 308 309 309 309 307
305 307 305 307 307 308 311 316 317 319 323 325 327 328 329 332 332 332 330 330 329 329 328 329 328 328 327 325 324 324 325 325 328 329 330 330 328 327 327 325 323 322 315 309 306 308 308 307 303
305 305 305 306 307 308 308 312 316 319 322 325 325 326 329 330 332 332 330 330 329 328 328 328 327 327 328 325 324 325 328 329 327 327 326 327 326 326 326 324 323 320 311 304 304 306 306 304 299
302 302 302 302 304 309 313 313 310 315 318 324 326 326 326 328 328 331 331 330 329 329 327 327 327 327 327 325 323 325 324 324 323 325 327 327 326 326 325 323 322 313 308 302 302 304 303 300 298
302 303 304 303 304 305 305 310 314 315 314 320 324 327 327 328 329 329 330 329 329 328 327 326 326 327 327 324 322 323 322 320 321 325 324 324 325 324 323 322 316 307 303 300 301 303 303 302 301
304 304 304 304 304 304 306 311 312 315 320 319 320 323 326 327 330 330 330 328 326 327 327 328 328 328 326 324 323 321 319 318 316 317 319 321 322 322 320 315 309 302 300 300 300 301 303 302 300
307 304 303 304 306 307 306 311 312 314 320 320 323 323 325 326 327 329 330 329 327 326 326 327 326 325 325 325 320 320 320 316 314 319 319 320 319 317 312 307 302 300 299 298 298 298 300 299 299
306 305 304 304 307 307 307 312 312 314 317 319 321 324 326 327 328 328 330 329 328 327 327 326 325 323 324 323 323 322 322 319 318 320 317 316 314 310 306 302 299 298 296 295 295 295 296 295 298
305 306 306 307 308 309 307 307 311 318 319 319 320 322 324 326 329 328 328 329 328 328 327 326 325 323 324 323 323 323 321 315 313 312 312 310 308 305 301 298 297 296 295 294 294 294 294 294 294
308 306 305 308 311 308 306 308 310 313 317 317 318 319 323 326 329 329 330 329 328 328 328 327 326 325 324 323 323 322 320 321 320 318 313 310 304 300 298 297 295 294 293 293 293 293 293 292 292
308 307 306 306 310 309 307 312 315 312 312 319 317 318 322 325 330 330 330 329 327 327 327 327 327 326 323 322 321 320 322 320 319 315 312 306 302 298 296 294 293 292 292 293 297 294 292 292 291
308 309 306 312 317 315 321 321 319 321 318 318 322 323 322 323 329 329 330 328 328 327 326 327 326 326 323 321 320 318 319 318 318 312 308 304 301 298 295 293 292 293 295 298 294 292 291 290 290
307 306 308 313 316 322 321 323 324 324 323 322 323 325 325 325 330 329 329 328 327 326 326 326 326 324 323 321 318 318 319 316 314 310 305 303 299 295 293 292 293 302 303 296 293 290 289 289 289
311 309 310 308 311 321 323 322 320 320 320 321 321 324 326 329 329 327 326 325 324 323 324 325 325 322 320 316 313 314 312 309 307 304 300 299 295 294 293 303 306 306 302 292 289 289 289 288 288
312 313 311 317 323 320 323 325 316 318 317 320 321 325 326 327 321 317 313 312 312 310 312 313 313 312 310 309 309 307 304 304 302 300 298 295 296 302 307 304 306 305 298 289 288 288 288 288 287
Wind_Speed
14 11 5 5 6 6 14 9 11 6 3 2 4 4 8 4 4 2 4 12 25 30 27 26 26 26 26 24 23 24 22 21 20 19 19 18 17 15 14 13 12 11 11 10 9 9 9 10 10
12 6 4 3 7 11 13 13 13 10 1 2 5 4 6 4 2 5 11 11 26 29 27 25 28 28 26 24 24 24 22 20 19 19 19 18 16 15 14 13 12 11 10 9 9 9 9 9 9
8 4 4 4 11 16 13 10 14 6 4 7 4 3 2 1 2 9 3 20 29 27 27 25 28 29 26 22 23 23 23 22 20 19 18 18 17 15 14 13 12 10 9 9 8 8 8 8 9
4 5 4 11 17 15 19 11 9 7 3 5 3 4 2 1 1 8 14 25 28 26 24 27 28 28 26 23 22 23 22 20 20 19 18 17 16 15 14 12 11 10 9 8 7 7 8 8 8
5 4 11 15 21 19 12 15 8 8 3 5 8 4 2 2 4 12 21 25 27 26 23 26 28 28 27 23 21 22 21 20 19 19 18 16 15 14 13 13 11 10 9 7 7 7 7 7 6
5 5 12 19 21 17 18 13 10 13 11 4 5 5 2 4 12 17 21 24 23 25 24 24 26 27 27 24 21 20 21 20 20 19 17 16 15 14 12 12 11 10 9 7 8 7 7 6 6
8 9 20 21 21 23 18 10 16 17 14 10 2 6 4 9 13 18 22 22 22 23 24 23 23 25 26 25 22 21 20 20 21 20 18 17 16 14 13 12 11 9 8 8 8 7 5 5 4
7 5 22 23 20 25 17 16 14 14 18 3 6 6 5 14 19 20 20 20 22 22 23 24 24 23 23 24 23 23 19 18 20 21 20 17 16 14 12 11 10 9 9 8 6 4 3 1 4
9 10 19 27 24 21 17 18 11 4 9 6 7 2 2 23 22 21 21 21 20 21 21 23 25 24 23 22 25 23 18 17 19 19 19 18 13 12 11 10 10 9 8 6 3 3 2 3 4
11 14 25 21 18 16 22 20 15 12 12 9 8 4 13 21 23 24 25 24 24 22 21 22 25 25 23 21 27 21 18 15 16 16 17 14 13 11 10 10 10 8 5 4 3 3 3 5 5
10 24 18 16 21 11 20 24 21 15 18 15 14 14 15 20 23 24 24 26 26 23 21 21 23 24 24 20 29 18 16 15 16 16 16 13 12 11 9 8 7 5 4 3 3 4 4 5 5
18 21 13 11 16 13 16 19 23 22 15 5 7 16 19 19 20 23 24 26 27 26 23 24 22 22 22 24 23 17 16 16 16 16 15 14 12 11 10 9 7 6 4 5 4 4 4 6 7
17 17 20 16 16 16 15 20 18 19 21 10 5 13 18 18 21 24 25 26 27 26 24 25 25 23 21 20 17 16 15 16 16 16 15 13 12 11 11 9 8 7 5 5 4 4 5 7 9
10 14 16 18 17 14 16 19 12 14 18 17 12 13 15 18 21 21 26 28 28 29 25 25 28 29 22 20 18 16 15 15 16 16 15 13 12 12 11 11 9 7 5 5 5 6 7 9 10
12 16 15 16 17 16 13 22 29 21 18 19 17 13 13 16 22 23 28 27 28 28 26 29 29 30 23 20 18 16 15 15 16 15 14 13 13 12 13 12 10 8 6 5 7 8 9 10 11
16 16 17 9 12 17 10 19 21 22 22 22 20 18 15 16 23 28 27 29 30 29 31 27 33 29 24 19 18 16 16 16 15 15 14 13 13 15 14 12 10 7 7 7 7 8 10 10 10
13 14 16 14 15 15 22 24 22 20 19 24 24 19 16 16 18 25 27 30 32 31 31 32 34 31 23 20 18 16 16 16 15 15 14 14 16 17 14 12 10 9 8 8 9 10 10 12 12
11 15 14 16 9 15 23 28 18 13 22 22 22 25 20 18 20 29 31 32 31 31 31 31 30 33 26 20 18 17 16 15 14 14 14 19 18 17 14 12 11 10 10 10 11 12 12 12 14
19 18 19 19 17 15 17 20 26 24 16 17 21 21 23 23 20 28 31 32 32 31 32 31 32 34 29 25 23 17 16 15 15 17 19 21 19 17 14 13 12 13 13 14 15 16 16 13 14
23 23 23 22 23 15 22 23 20 22 30 24 22 21 21 20 21 21 29 30 32 32 36 33 32 33 32 27 24 18 17 16 16 20 21 20 20 18 15 14 14 15 16 16 17 17 13 9 13
24 23 23 20 15 15 17 22 23 21 17 25 26 23 21 22 22 21 23 30 34 32 33 36 34 33 32 27 23 18 19 20 18 20 21 21 19 17 16 16 16 18 17 17 16 15 10 9 10
23 27 21 18 12 10 14 10 20 23 22 18 23 25 24 22 21 21 22 26 33 34 33 32 33 33 34 31 26 28 23 19 16 25 24 22 20 19 18 18 18 18 17 16 16 15 10 10 9
21 16 18 18 18 17 18 9 9 20 26 25 26 26 23 23 23 24 23 29 32 30 32 32 32 34 35 33 30 28 23 21 26 28 26 24 22 20 19 19 19 18 17 16 15 15 13 12 10
9 12 9 11 12 11 20 12 11 16 25 21 24 27 26 23 22 23 28 27 28 31 33 33 34 35 35 34 31 30 27 25 28 29 29 26 23 22 20 19 18 17 17 15 14 12 12 11 10
15 13 5 8 7 10 8 12 18 15 15 24 23 24 26 24 23 22 22 20 28 31 32 33 35 34 35 34 31 31 32 34 35 35 34 32 27 25 24 22 21 19 17 14 12 10 10 10 10
19 16 7 9 8 6 14 9 10 24 27 13 21 22 24 25 23 24 24 22 29 32 34 34 33 32 33 33 33 33 38 37 36 34 37 28 30 25 24 23 21 18 15 13 8 10 10 9 8
10 13 21 6 1 5 6 7 11 7 11 15 16 16 19 23 21 22 21 25 30 32 34 35 34 31 32 32 30 32 39 38 38 36 30 30 27 27 25 21 19 18 12 8 9 8 11 11 8
7 13 9 6 4 7 6 5 6 8 12 7 13 14 18 21 19 19 19 22 26 29 30 31 32 32 32 30 35 38 40 37 36 33 32 30 28 26 26 21 16 11 8 9 12 16 13 11 10
5 12 9 7 8 4 4 4 4 2 4 6 8 14 17 19 17 15 15 19 20 21 23 24 27 29 30 30 29 34 35 33 31 32 29 30 29 25 22 19 12 6 10 14 16 15 14 13 11
4 7 14 5 8 6 2 1 9 8 9 10 9 14 17 10 10 9 10 13 16 16 20 24 25 26 27 30 31 29 29 30 30 29 30 32 24 21 20 13 9 9 14 17 17 16 15 13 14
Wind_Direction
326 324 303 239 234 237 235 225 238 223 226 154 134 196 217 330 226 355 132 159 158 157 162 164 162 159 156 153 149 145 142 141 141 139 137 135 134 131 130 126 121 115 111 107 102 96 86 83 78
317 310 255 251 238 225 232 231 222 233 247 178 182 205 230 221 126 106 137 167 161 158 160 166 167 166 162 157 152 147 145 144 143 143 141 139 138 137 135 131 126 120 116 108 99 92 88 81 77
307 248 258 237 234 234 238 211 239 243 247 215 206 242 272 93 147 157 149 159 158 160 161 165 167 168 165 160 153 150 149 147 147 145 145 144 141 142 140 136 130 127 118 109 101 95 90 83 75
277 201 223 239 234 233 236 239 243 202 174 199 224 213 179 325 202 167 154 157 159 161 163 167 169 169 166 162 156 153 150 150 150 149 149 146 146 146 143 144 138 132 121 113 106 97 94 90 83
241 249 239 235 238 237 227 241 226 220 226 191 192 221 199 133 169 150 154 160 163 163 164 164 170 170 169 165 161 156 154 153 152 152 150 151 150 149 154 146 143 134 126 118 106 102 99 89 85
238 242 234 234 231 231 240 232 226 243 253 192 214 213 151 131 161 151 156 162 167 163 163 166 173 172 171 169 166 160 157 155 155 155 155 155 157 160 153 147 142 138 129 121 113 104 93 83 78
242 229 239 242 240 233 227 222 235 239 245 226 253 221 117 169 166 156 156 161 166 167 165 169 171 175 176 173 169 165 160 163 163 161 164 164 163 163 157 152 147 140 131 120 114 100 85 69 57
237 247 242 237 237 239 227 239 246 246 246 83 191 224 201 180 163 157 157 160 163 169 171 171 175 176 177 177 173 173 171 169 166 167 170 167 166 164 160 155 152 144 134 127 120 100 88 84 45
256 240 236 233 234 241 231 241 223 272 220 193 184 266 13 154 157 156 162 165 163 168 173 175 177 178 177 179 179 176 179 173 170 169 169 165 163 163 161 170 156 146 141 135 135 184 118 93 59
227 235 241 244 236 245 239 234 239 224 215 204 174 108 138 156 165 169 173 171 171 173 176 173 176 179 178 173 179 169 174 170 170 169 170 170 168 169 166 163 154 147 157 171 166 121 99 87 95
247 243 257 256 247 259 260 241 229 227 234 228 206 169 165 171 179 179 180 179 174 174 176 179 174 179 178 175 173 171 173 176 178 178 176 174 170 169 163 165 162 168 158 147 116 102 86 88 98
257 260 265 290 290 301 274 251 235 226 218 223 213 174 168 182 185 186 182 181 179 178 179 180 176 174 177 178 175 180 179 178 178 181 179 176 176 175 172 168 169 168 150 135 119 98 94 94 97
266 272 273 274 282 294 278 258 264 238 228 215 169 166 183 189 190 192 183 180 182 180 178 184 176 178 177 177 182 182 184 181 182 181 183 183 181 178 173 168 173 180 141 135 120 111 110 103 106
296 295 288 277 268 275 291 276 256 240 248 243 208 185 189 194 191 187 187 183 186 183 178 185 185 185 183 182 184 186 186 184 184 185 188 187 183 178 179 184 183 173 148 141 134 131 123 115 116
283 285 287 274 260 257 289 275 244 236 242 242 219 210 193 197 193 191 189 188 188 189 182 186 189 190 186 189 187 187 189 188 189 190 192 188 183 182 187 187 184 178 167 157 145 134 126 124 121
278 277 270 268 248 235 202 259 253 232 232 232 232 222 209 195 198 193 189 187 191 190 191 184 192 191 191 191 190 189 191 192 195 194 192 190 184 193 195 194 190 181 167 155 143 139 133 131 127
237 258 255 266 249 252 210 248 245 264 226 231 231 226 212 203 202 196 188 186 194 193 195 191 192 193 193 192 193 192 191 193 199 198 193 189 189 195 199 196 190 189 170 160 153 143 143 136 128
250 241 253 259 259 238 245 244 241 261 240 227 230 226 219 215 202 197 193 194 196 193 195 195 189 193 194 194 192 192 191 190 193 193 188 187 190 194 198 195 193 192 175 165 156 144 136 138 134
268 272 269 267 264 280 266 269 244 237 246 256 233 231 225 223 214 203 196 192 196 197 191 192 187 190 190 192 189 183 183 181 186 190 191 190 187 194 193 198 197 190 178 172 162 153 144 134 141
252 257 256 264 261 260 262 270 272 249 234 231 235 230 228 221 214 201 195 191 194 194 193 188 190 187 190 191 192 191 180 183 187 189 189 189 190 192 195 199 194 187 176 169 167 162 155 151 175
248 247 250 246 269 263 267 269 265 251 237 230 235 232 226 222 212 200 193 190 190 193 198 187 192 190 187 185 181 171 176 179 182 179 185 186 189 193 196 195 193 186 184 182 179 181 178 156 191
246 238 252 259 260 253 199 264 238 222 225 225 233 227 228 223 216 204 198 194 190 192 197 191 190 186 186 181 179 184 181 176 188 185 188 187 191 194 193 192 189 184 184 186 190 188 187 181 182
242 250 238 238 237 259 252 267 267 215 219 219 220 224 221 218 211 204 201 196 191 186 193 190 190 187 184 185 186 183 184 189 187 189 186 189 191 194 192 190 187 182 179 179 179 183 188 194 185
219 241 188 234 229 237 240 221 252 213 215 210 215 214 218 218 210 206 200 192 189 186 190 186 188 189 186 186 188 190 186 183 185 185 185 187 189 189 189 185 182 179 175 170 171 176 182 190 190
197 171 214 219 202 242 223 216 245 260 232 215 212 213 210 209 206 202 194 189 187 186 187 186 188 188 187 189 191 193 190 199 197 194 194 190 188 187 185 182 178 175 172 167 165 169 177 174 178
187 186 194 201 203 237 196 231 226 237 239 243 228 218 207 205 200 198 189 186 187 187 186 185 188 186 186 185 189 192 204 201 199 197 199 192 192 186 179 179 174 170 165 164 186 191 190 185 192
168 209 227 323 139 230 200 243 260 203 208 217 222 219 211 206 201 196 189 186 187 187 188 186 184 185 187 186 186 192 201 203 203 201 197 196 190 183 176 175 173 165 169 192 189 200 211 197 197
201 185 195 224 250 208 195 224 228 190 201 204 227 218 209 201 192 192 186 184 188 185 188 188 185 182 185 186 190 196 200 203 203 200 196 190 183 178 170 167 172 181 197 176 198 212 211 209 211
198 189 219 213 242 314 151 217 28 303 278 262 264 232 208 193 186 182 179 171 174 169 176 181 179 175 176 180 182 192 194 196 196 193 190 177 172 169 171 174 186 210 203 200 213 218 221 216 222
250 187 210 216 189 215 297 146 3 322 294 274 263 231 197 165 116 116 119 118 123 127 138 144 149 154 165 174 178 177 181 185 185 181 173 158 156 174 184 197 196 216 219 214 219 226 229 228 232